FW0041 Weather Reports


Display with metric or nautical units.
time (UTC)temp
F
wind
direction
speed
MPH
gust
MPH
rain 1hr
in
rain 24hr
in
rain mn
in
humidity
%
barometer
mb
20260905141547 79 177 2.0 5.0 0.00 0.00 0.00 88 1014.6
20260905140011 79 177 0.0 0.0 0.00 0.00 0.00 88 1014.6
20260905134546 78 177 0.0 2.0 0.00 0.00 0.00 88 1014.5
20260905133058 78 177 0.0 1.0 0.00 0.00 0.00 88 1014.5
20260905131530 77 177 0.0 0.0 0.00 0.00 0.00 88 1014.4
20260905130059 77 177 0.0 0.0 0.00 0.00 0.00 88 1014.3
20260905130005 76 177 0.0 0.0 0.00 0.00 0.00 88 1014.3
20260905124528 76 177 0.0 0.0 0.00 0.00 0.00 88 1014.2
20260905123104 76 177 0.0 0.0 0.00 0.00 0.00 88 1014.0
20260905121516 76 177 0.0 0.0 0.00 0.00 0.00 88 1013.8
20260905120046 76 177 0.0 0.0 0.00 0.00 0.00 88 1013.5
20260905114512 77 177 0.0 0.0 0.00 0.00 0.00 88 1013.4
20260905113043 77 177 0.0 0.0 0.00 0.00 0.00 88 1013.3
20260905111504 77 177 0.0 0.0 0.00 0.00 0.00 88 1013.2
20260905110033 77 177 0.0 0.0 0.00 0.00 0.00 88 1013.0
20260905104506 77 177 0.0 0.0 0.00 0.00 0.00 88 1013.0
20260905103033 77 177 0.0 0.0 0.00 0.00 0.00 87 1012.9
20260905101546 77 177 0.0 1.0 0.00 0.00 0.00 87 1012.9
20260905100015 77 177 0.0 0.0 0.00 0.00 0.00 87 1012.9
20260905094547 77 177 0.0 0.0 0.00 0.00 0.00 87 1012.9
20260905093012 77 177 0.0 0.0 0.00 0.00 0.00 87 1012.9
20260905091540 77 177 0.0 0.0 0.00 0.00 0.00 87 1013.0
20260905090004 78 177 0.0 0.0 0.00 0.00 0.00 87 1012.9
20260905084530 78 177 0.0 0.0 0.00 0.00 0.00 86 1012.9
20260905083006 78 177 0.0 0.0 0.00 0.00 0.00 86 1012.9
20260905081531 78 177 0.0 0.0 0.00 0.00 0.00 86 1012.9
20260905080054 78 177 0.0 0.0 0.00 0.00 0.00 86 1012.9
20260905074526 78 177 0.0 0.0 0.00 0.00 0.00 85 1013.0
20260905073056 78 177 0.0 0.0 0.00 0.00 0.00 85 1012.9
20260905073008 78 177 0.0 0.0 0.00 0.00 0.00 85 1013.0
20260905071525 78 177 0.0 0.0 0.00 0.00 0.00 85 1013.2
20260905070002 79 177 0.0 0.0 0.00 0.00 0.00 85 1013.3
20260905064531 79 177 0.0 0.0 0.00 0.00 0.00 84 1013.5
20260905063051 79 177 0.0 1.0 0.00 0.00 0.00 84 1013.4
20260905061528 79 177 0.0 0.0 0.00 0.00 0.00 84 1013.4
20260905060046 79 177 0.0 0.0 0.00 0.00 0.00 84 1013.4
20260905054504 80 177 0.0 0.0 0.00 0.00 0.00 84 1013.4
20260905053031 80 177 0.0 0.0 0.00 0.00 0.00 83 1013.6
20260905051548 80 177 0.0 0.0 0.00 0.00 0.00 83 1013.3
20260905050113 81 177 0.0 0.0 0.00 0.00 0.00 82 1013.4
20260905044512 81 177 0.0 1.0 0.00 0.00 0.00 82 1013.4
20260905043043 81 176 0.0 0.0 0.00 0.00 0.00 81 1013.4
20260905041512 81 176 0.0 0.0 0.00 0.00 0.00 81 1013.4
20260905040040 82 176 0.0 0.0 0.00 0.00 0.00 81 1013.5
20260905034508 82 176 0.0 0.0 0.00 0.00 0.00 81 1013.7
20260905033034 82 176 0.0 2.0 0.00 0.00 0.00 79 1013.6
20260905031600 83 176 0.0 0.0 0.00 0.00 0.00 79 1013.8
20260905030032 83 176 0.0 2.0 0.00 0.00 0.00 77 1013.7
20260905024554 84 176 0.0 0.0 0.00 0.00 0.00 76 1013.8
20260905023033 84 176 0.0 1.0 0.00 0.00 0.00 75 1013.7
20260905021601 85 176 0.0 1.0 0.00 0.00 0.00 75 1013.6
20260905021507 85 176 0.0 1.0 0.00 0.00 0.00 75 1013.5
20260905020024 85 176 0.0 0.0 0.00 0.00 0.00 74 1013.3
20260905014551 86 176 0.0 1.0 0.00 0.00 0.00 73 1013.1
20260905013016 87 176 0.0 1.0 0.00 0.00 0.00 72 1012.9
20260905011542 87 176 0.0 1.0 0.00 0.00 0.00 70 1012.8
20260905010014 88 176 0.0 2.0 0.00 0.00 0.00 68 1012.7
20260905004615 89 176 0.0 1.0 0.00 0.00 0.00 66 1012.5
20260905003014 90 176 0.0 1.0 0.00 0.00 0.00 63 1012.3
20260905001551 92 176 0.0 2.0 0.00 0.00 0.00 61 1012.4
20260905000014 93 176 1.0 2.0 0.00 0.00 0.00 59 1012.4
20260904234548 95 176 0.0 3.0 0.00 0.00 0.00 57 1012.5
20260904233020 96 190 2.0 3.0 0.00 0.00 0.00 54 1012.3
20260904231542 96 208 1.0 7.0 0.00 0.00 0.00 51 1012.5
20260904230014 97 219 4.0 7.0 0.00 0.00 0.00 49 1012.4
20260904224540 97 173 1.0 5.0 0.00 0.00 0.00 49 1012.3
20260904223014 96 213 1.0 6.0 0.00 0.00 0.00 49 1012.5
20260904221534 96 201 0.0 4.0 0.00 0.00 0.00 50 1012.4
20260904220002 96 190 2.0 5.0 0.00 0.00 0.00 51 1012.7
20260904214521 95 323 1.0 6.0 0.00 0.00 0.00 52 1012.7
20260904213048 95 244 1.0 5.0 0.00 0.00 0.00 53 1012.8
20260904211510 94 154 1.0 8.0 0.00 0.00 0.00 53 1012.9
20260904210037 94 192 3.0 10.0 0.00 0.00 0.00 55 1013.2
20260904204510 94 190 3.0 7.0 0.00 0.06 0.00 56 1013.3
20260904203032 93 205 1.0 10.0 0.00 0.06 0.00 57 1013.6
20260904201550 92 183 2.0 6.0 0.00 0.06 0.00 58 1013.6
20260904200007 91 198 2.0 7.0 0.00 0.06 0.00 57 1013.7
20260904194531 90 211 2.0 7.0 0.00 0.11 0.00 60 1013.8
20260904193042 88 236 3.0 5.0 0.00 0.11 0.00 65 1013.9
20260904191507 87 205 2.0 7.0 0.00 0.11 0.00 68 1014.2
20260904190029 88 155 0.0 10.0 0.00 0.11 0.00 68 1014.3
20260904184612 88 212 6.0 10.0 0.00 0.20 0.00 68 1014.6
20260904183017 88 203 2.0 8.0 0.00 0.20 0.00 68 1015.0
20260904181540 88 248 2.0 7.0 0.00 0.20 0.00 72 1015.1
20260904180100 87 194 0.0 8.0 0.00 0.20 0.00 74 1015.3
20260904174519 86 229 1.0 5.0 0.00 0.95 0.00 78 1015.0
20260904173042 85 208 2.0 6.0 0.00 0.95 0.00 81 1014.9
20260904171514 84 153 1.0 4.0 0.00 0.95 0.00 87 1015.2
20260904170037 83 168 0.0 3.0 0.00 0.95 0.00 88 1015.4
20260904164504 82 97 1.0 3.0 0.00 0.95 0.00 87 1015.6
20260904163033 83 74 1.0 3.0 0.00 0.95 0.00 85 1015.4
20260904161559 82 68 0.0 2.0 0.00 0.95 0.00 84 1015.3
20260904160028 82 68 1.0 3.0 0.00 0.95 0.00 85 1015.5
20260904154543 81 68 0.0 3.0 0.00 0.95 0.00 84 1015.3
20260904153104 80 68 1.0 4.0 0.00 0.95 0.00 85 1015.2
20260904151518 80 68 0.0 3.0 0.00 0.95 0.00 85 1015.2
20260904150039 80 68 0.0 2.0 0.00 0.95 0.00 85 1015.3
20260904144557 79 68 0.0 2.0 0.00 0.95 0.00 85 1015.2
20260904143029 79 68 0.0 2.0 0.00 0.95 0.00 85 1015.2